Tracking 17631 objects as of 4-May-2016
HD Live streaming from Space Station
objects crossing your sky now

EDUSAT

Track EDUSAT now!
10-day predictions
EDUSAT is classified as:


NORAD ID: 37788
Int'l Code: 2011-044A
Perigee: 640.4 km
Apogee: 692.8 km
Inclination: 98.2 °
Period: 97.9 minutes
Semi major axis: 7037 km
RCS: 0.1421 m2 (medium)
Launch date: August 17, 2011
Source: Italy (IT)
Launch site: Orenburg, Russia (OREN)

EduSat is a microsatellite built by the University of Rome.
Your satellite tracking list
Your tracking list is empty





NASA's NSSDC Master Catalog

Two Line Element Set (TLE):
1 37788U 11044A   16125.03508397  .00000315  00000-0  60099-4 0  9990
2 37788  98.2156 233.9845 0037197 305.0355 171.8106 14.70506068252750
Source of the keplerian elements: AFSPC

N2YO: 379